Year,Month,Day,Hour,Minute,Value (Times are PST for temperature in C)
2012,07,09,00,00,12.20
2012,07,09,00,01,12.20
2012,07,09,00,02,12.20
2012,07,09,00,03,12.20
2012,07,09,00,04,12.20
2012,07,09,00,05,12.20
2012,07,09,00,06,12.10
2012,07,09,00,07,12.10
2012,07,09,00,08,12.10
2012,07,09,00,09,12.10
2012,07,09,00,10,12.10
2012,07,09,00,11,12.10
2012,07,09,00,12,12.10
2012,07,09,00,13,12.00
2012,07,09,00,14,12.00
2012,07,09,00,15,12.00
2012,07,09,00,16,12.00
2012,07,09,00,17,12.00
2012,07,09,00,18,12.00
2012,07,09,00,19,12.00
2012,07,09,00,20,12.00
2012,07,09,00,21,12.00
2012,07,09,00,22,11.90
2012,07,09,00,23,11.90
2012,07,09,00,24,11.90
2012,07,09,00,25,11.90
2012,07,09,00,26,11.90
2012,07,09,00,27,11.90
2012,07,09,00,28,11.80
2012,07,09,00,29,11.80
2012,07,09,00,30,11.80
2012,07,09,00,31,11.80
2012,07,09,00,32,11.80
2012,07,09,00,33,11.80
2012,07,09,00,34,11.80
2012,07,09,00,35,11.80
2012,07,09,00,36,11.80
2012,07,09,00,37,11.80
2012,07,09,00,38,11.70
2012,07,09,00,39,11.70
2012,07,09,00,40,11.70
2012,07,09,00,41,11.70
2012,07,09,00,42,11.70
2012,07,09,00,43,11.70
2012,07,09,00,44,11.70
2012,07,09,00,45,11.70
2012,07,09,00,46,11.70
2012,07,09,00,47,11.70
2012,07,09,00,48,11.70
2012,07,09,00,49,11.60
2012,07,09,00,50,11.60
2012,07,09,00,51,11.60
2012,07,09,00,52,11.60
2012,07,09,00,53,11.60
2012,07,09,00,54,11.60
2012,07,09,00,55,11.60
2012,07,09,00,56,11.60
2012,07,09,00,57,11.60
2012,07,09,00,58,11.60
2012,07,09,00,59,11.60
2012,07,09,01,00,11.50
2012,07,09,01,01,11.50
2012,07,09,01,02,11.50
2012,07,09,01,03,11.50
2012,07,09,01,04,11.50
2012,07,09,01,05,11.50
2012,07,09,01,06,11.50
2012,07,09,01,07,11.50
2012,07,09,01,08,11.50
2012,07,09,01,09,11.50
2012,07,09,01,10,11.50
2012,07,09,01,11,11.50
2012,07,09,01,12,11.40
2012,07,09,01,13,11.40
2012,07,09,01,14,11.40
2012,07,09,01,15,11.40
2012,07,09,01,16,11.40
2012,07,09,01,17,11.40
2012,07,09,01,18,11.30
2012,07,09,01,19,11.30
2012,07,09,01,20,11.30
2012,07,09,01,21,11.30
2012,07,09,01,22,11.30
2012,07,09,01,23,11.30
2012,07,09,01,24,11.30
2012,07,09,01,25,11.30
2012,07,09,01,26,11.30
2012,07,09,01,27,11.30
2012,07,09,01,28,11.30
2012,07,09,01,29,11.20
2012,07,09,01,30,11.20
2012,07,09,01,31,11.20
2012,07,09,01,32,11.20
2012,07,09,01,33,11.20
2012,07,09,01,34,11.20
2012,07,09,01,35,11.20
2012,07,09,01,36,11.20
2012,07,09,01,37,11.20
2012,07,09,01,38,11.20
2012,07,09,01,39,11.10
2012,07,09,01,40,11.10
2012,07,09,01,41,11.10
2012,07,09,01,42,11.10
2012,07,09,01,43,11.10
2012,07,09,01,44,11.10
2012,07,09,01,45,11.10
2012,07,09,01,46,11.10
2012,07,09,01,47,11.10
2012,07,09,01,48,11.10
2012,07,09,01,49,11.10
2012,07,09,01,50,11.10
2012,07,09,01,51,11.10
2012,07,09,01,52,11.00
2012,07,09,01,53,11.00
2012,07,09,01,54,11.00
2012,07,09,01,55,11.00
2012,07,09,01,56,10.90
2012,07,09,01,57,10.90
2012,07,09,01,58,10.90
2012,07,09,01,59,10.90
2012,07,09,02,00,10.90
2012,07,09,02,01,10.90
2012,07,09,02,02,10.80
2012,07,09,02,03,10.80
2012,07,09,02,04,10.80
2012,07,09,02,05,10.80
2012,07,09,02,06,10.80
2012,07,09,02,07,10.70
2012,07,09,02,08,10.70
2012,07,09,02,09,10.70
2012,07,09,02,10,10.70
2012,07,09,02,11,10.70
2012,07,09,02,12,10.70
2012,07,09,02,13,10.70
2012,07,09,02,14,10.70
2012,07,09,02,15,10.70
2012,07,09,02,16,10.70
2012,07,09,02,17,10.70
2012,07,09,02,18,10.70
2012,07,09,02,19,10.60
2012,07,09,02,20,10.60
2012,07,09,02,21,10.60
2012,07,09,02,22,10.60
2012,07,09,02,23,10.60
2012,07,09,02,24,10.60
2012,07,09,02,25,10.60
2012,07,09,02,26,10.60
2012,07,09,02,27,10.60
2012,07,09,02,28,10.60
2012,07,09,02,29,10.60
2012,07,09,02,30,10.50
2012,07,09,02,31,10.50
2012,07,09,02,32,10.50
2012,07,09,02,33,10.50
2012,07,09,02,34,10.40
2012,07,09,02,35,10.40
2012,07,09,02,36,10.40
2012,07,09,02,37,10.40
2012,07,09,02,38,10.40
2012,07,09,02,39,10.40
2012,07,09,02,40,10.40
2012,07,09,02,41,10.40
2012,07,09,02,42,10.40
2012,07,09,02,43,10.40
2012,07,09,02,44,10.40
2012,07,09,02,45,10.30
2012,07,09,02,46,10.30
2012,07,09,02,47,10.30
2012,07,09,02,48,10.30
2012,07,09,02,49,10.30
2012,07,09,02,50,10.30
2012,07,09,02,51,10.30
2012,07,09,02,52,10.30
2012,07,09,02,53,10.30
2012,07,09,02,54,10.30
2012,07,09,02,55,10.30
2012,07,09,02,56,10.30
2012,07,09,02,57,10.30
2012,07,09,02,58,10.30
2012,07,09,02,59,10.30
2012,07,09,03,00,10.20
2012,07,09,03,01,10.20
2012,07,09,03,02,10.20
2012,07,09,03,03,10.20
2012,07,09,03,04,10.20
2012,07,09,03,05,10.20
2012,07,09,03,06,10.20
2012,07,09,03,07,10.20
2012,07,09,03,08,10.20
2012,07,09,03,09,10.20
2012,07,09,03,10,10.20
2012,07,09,03,11,10.20
2012,07,09,03,12,10.20
2012,07,09,03,13,10.20
2012,07,09,03,14,10.20
2012,07,09,03,15,10.20
2012,07,09,03,16,10.20
2012,07,09,03,17,10.20
2012,07,09,03,18,10.20
2012,07,09,03,19,10.20
2012,07,09,03,20,10.20
2012,07,09,03,21,10.20
2012,07,09,03,22,10.20
2012,07,09,03,23,10.20
2012,07,09,03,24,10.20
2012,07,09,03,25,10.20
2012,07,09,03,26,10.20
2012,07,09,03,27,10.20
2012,07,09,03,28,10.20
2012,07,09,03,29,10.20
2012,07,09,03,30,10.20
2012,07,09,03,31,10.20
2012,07,09,03,32,10.20
2012,07,09,03,33,10.20
2012,07,09,03,34,10.20
2012,07,09,03,35,10.20
2012,07,09,03,36,10.20
2012,07,09,03,37,10.20
2012,07,09,03,38,10.20
2012,07,09,03,39,10.20
2012,07,09,03,40,10.20
2012,07,09,03,41,10.20
2012,07,09,03,42,10.20
2012,07,09,03,43,10.20
2012,07,09,03,44,10.20
2012,07,09,03,45,10.20
2012,07,09,03,46,10.30
2012,07,09,03,47,10.30
2012,07,09,03,48,10.30
2012,07,09,03,49,10.30
2012,07,09,03,50,10.30
2012,07,09,03,51,10.30
2012,07,09,03,52,10.40
2012,07,09,03,53,10.40
2012,07,09,03,54,10.40
2012,07,09,03,55,10.40
2012,07,09,03,56,10.40
2012,07,09,03,57,10.40
2012,07,09,03,58,10.40
2012,07,09,03,59,10.50
2012,07,09,04,00,10.50
2012,07,09,04,01,10.50
2012,07,09,04,02,10.50
2012,07,09,04,03,10.50
2012,07,09,04,04,10.60
2012,07,09,04,05,10.60
2012,07,09,04,06,10.60
2012,07,09,04,07,10.60
2012,07,09,04,08,10.60
2012,07,09,04,09,10.60
2012,07,09,04,10,10.60
2012,07,09,04,11,10.60
2012,07,09,04,12,10.70
2012,07,09,04,13,10.70
2012,07,09,04,14,10.70
2012,07,09,04,15,10.70
2012,07,09,04,16,10.70
2012,07,09,04,17,10.70
2012,07,09,04,18,10.70
2012,07,09,04,19,10.70
2012,07,09,04,20,10.70
2012,07,09,04,21,10.70
2012,07,09,04,22,10.70
2012,07,09,04,23,10.70
2012,07,09,04,24,10.70
2012,07,09,04,25,10.70
2012,07,09,04,26,10.70
2012,07,09,04,27,10.70
2012,07,09,04,28,10.70
2012,07,09,04,29,10.70
2012,07,09,04,30,10.70
2012,07,09,04,31,10.80
2012,07,09,04,32,10.80
2012,07,09,04,33,10.80
2012,07,09,04,34,10.80
2012,07,09,04,35,10.80
2012,07,09,04,36,10.80
2012,07,09,04,37,10.90
2012,07,09,04,38,10.90
2012,07,09,04,39,10.90
2012,07,09,04,40,10.90
2012,07,09,04,41,10.90
2012,07,09,04,42,10.90
2012,07,09,04,43,11.00
2012,07,09,04,44,11.00
2012,07,09,04,45,11.00
2012,07,09,04,46,11.10
2012,07,09,04,47,11.10
2012,07,09,04,48,11.10
2012,07,09,04,49,11.10
2012,07,09,04,50,11.10
2012,07,09,04,51,11.10
2012,07,09,04,52,11.10
2012,07,09,04,53,11.10
2012,07,09,04,54,11.10
2012,07,09,04,55,11.20
2012,07,09,04,56,11.20
2012,07,09,04,57,11.20
2012,07,09,04,58,11.20
2012,07,09,04,59,11.20
2012,07,09,05,00,11.20
2012,07,09,05,01,11.30
2012,07,09,05,02,11.30
2012,07,09,05,03,11.30
2012,07,09,05,04,11.30
2012,07,09,05,05,11.30
2012,07,09,05,06,11.30
2012,07,09,05,07,11.30
2012,07,09,05,08,11.30
2012,07,09,05,09,11.30
2012,07,09,05,10,11.30
2012,07,09,05,11,11.40
2012,07,09,05,12,11.40
2012,07,09,05,13,11.40
2012,07,09,05,14,11.40
2012,07,09,05,15,11.40
2012,07,09,05,16,11.40
2012,07,09,05,17,11.40
2012,07,09,05,18,11.50
2012,07,09,05,19,11.50
2012,07,09,05,20,11.50
2012,07,09,05,21,11.50
2012,07,09,05,22,11.50
2012,07,09,05,23,11.60
2012,07,09,05,24,11.60
2012,07,09,05,25,11.60
2012,07,09,05,26,11.60
2012,07,09,05,27,11.60
2012,07,09,05,28,11.60
2012,07,09,05,29,11.60
2012,07,09,05,30,11.60
2012,07,09,05,31,11.60
2012,07,09,05,32,11.60
2012,07,09,05,33,11.60
2012,07,09,05,34,11.60
2012,07,09,05,35,11.70
2012,07,09,05,36,11.60
2012,07,09,05,37,11.60
2012,07,09,05,38,11.60
2012,07,09,05,39,11.60
2012,07,09,05,40,11.60
2012,07,09,05,41,11.70
2012,07,09,05,42,11.70
2012,07,09,05,43,11.70
2012,07,09,05,44,11.70
2012,07,09,05,45,11.70
2012,07,09,05,46,11.70
2012,07,09,05,47,11.70
2012,07,09,05,48,11.70
2012,07,09,05,49,11.70
2012,07,09,05,50,11.70
2012,07,09,05,51,11.70
2012,07,09,05,52,11.70
2012,07,09,05,53,11.70
2012,07,09,05,54,11.70
2012,07,09,05,55,11.70
2012,07,09,05,56,11.70
2012,07,09,05,57,11.70
2012,07,09,05,58,11.70
2012,07,09,05,59,11.70
2012,07,09,06,00,11.70
2012,07,09,06,01,11.70
2012,07,09,06,02,11.70
2012,07,09,06,03,11.60
2012,07,09,06,04,11.60
2012,07,09,06,05,11.60
2012,07,09,06,06,11.60
2012,07,09,06,07,11.60
2012,07,09,06,08,11.60
2012,07,09,06,09,11.60
2012,07,09,06,10,11.60
2012,07,09,06,11,11.60
2012,07,09,06,12,11.60
2012,07,09,06,13,11.60
2012,07,09,06,14,11.70
2012,07,09,06,15,11.70
2012,07,09,06,16,11.70
2012,07,09,06,17,11.70
2012,07,09,06,18,11.70
2012,07,09,06,19,11.70
2012,07,09,06,20,11.70
2012,07,09,06,21,11.70
2012,07,09,06,22,11.70
2012,07,09,06,23,11.70
2012,07,09,06,24,11.70
2012,07,09,06,25,11.70
2012,07,09,06,26,11.70
2012,07,09,06,27,11.70
2012,07,09,06,28,11.70
2012,07,09,06,29,11.70
2012,07,09,06,30,11.70
2012,07,09,06,31,11.70
2012,07,09,06,32,11.70
2012,07,09,06,33,11.70
2012,07,09,06,34,11.70
2012,07,09,06,35,11.70
2012,07,09,06,36,11.70
2012,07,09,06,37,11.70
2012,07,09,06,38,11.70
2012,07,09,06,39,11.70
2012,07,09,06,40,11.70
2012,07,09,06,41,11.70
2012,07,09,06,42,11.70
2012,07,09,06,43,11.70
2012,07,09,06,44,11.70
2012,07,09,06,45,11.80
2012,07,09,06,46,11.80
2012,07,09,06,47,11.80
2012,07,09,06,48,11.80
2012,07,09,06,49,11.80
2012,07,09,06,50,11.80
2012,07,09,06,51,11.80
2012,07,09,06,52,11.80
2012,07,09,06,53,11.80
2012,07,09,06,54,11.80
2012,07,09,06,55,11.80
2012,07,09,06,56,11.80
2012,07,09,06,57,11.80
2012,07,09,06,58,11.90
2012,07,09,06,59,11.90
2012,07,09,07,00,11.90
2012,07,09,07,01,11.90
2012,07,09,07,02,11.90
2012,07,09,07,03,11.90
2012,07,09,07,04,11.90
2012,07,09,07,05,11.90
2012,07,09,07,06,11.90
2012,07,09,07,07,11.90
2012,07,09,07,08,11.90
2012,07,09,07,09,11.90
2012,07,09,07,10,11.90
2012,07,09,07,11,11.90
2012,07,09,07,12,11.90
2012,07,09,07,13,11.90
2012,07,09,07,14,11.90
2012,07,09,07,15,12.00
2012,07,09,07,16,12.00
2012,07,09,07,17,12.00
2012,07,09,07,18,12.00
2012,07,09,07,19,12.00
2012,07,09,07,20,12.00
2012,07,09,07,21,12.00
2012,07,09,07,22,12.00
2012,07,09,07,23,12.00
2012,07,09,07,24,12.00
2012,07,09,07,25,12.00
2012,07,09,07,26,12.00
2012,07,09,07,27,12.00
2012,07,09,07,28,12.00
2012,07,09,07,29,12.00
2012,07,09,07,30,12.00
2012,07,09,07,31,12.00
2012,07,09,07,32,12.10
2012,07,09,07,33,12.10
2012,07,09,07,34,12.10
2012,07,09,07,35,12.10
2012,07,09,07,36,12.10
2012,07,09,07,37,12.10
2012,07,09,07,38,12.10
2012,07,09,07,39,12.10
2012,07,09,07,40,12.10
2012,07,09,07,41,12.10
2012,07,09,07,42,12.20
2012,07,09,07,43,12.20
2012,07,09,07,44,12.20
2012,07,09,07,45,12.20
2012,07,09,07,46,12.20
2012,07,09,07,47,12.20
2012,07,09,07,48,12.20
2012,07,09,07,49,12.20
2012,07,09,07,50,12.20
2012,07,09,07,51,12.20
2012,07,09,07,52,12.20
2012,07,09,07,53,12.20
2012,07,09,07,54,12.20
2012,07,09,07,55,12.20
2012,07,09,07,56,12.20
2012,07,09,07,57,12.20
2012,07,09,07,58,12.20
2012,07,09,07,59,12.20
2012,07,09,08,00,12.20
2012,07,09,08,01,12.20
2012,07,09,08,02,12.20
2012,07,09,08,03,12.30
2012,07,09,08,04,12.30
2012,07,09,08,05,12.30
2012,07,09,08,06,12.30
2012,07,09,08,07,12.30
2012,07,09,08,08,12.30
2012,07,09,08,09,12.40
2012,07,09,08,10,12.40
2012,07,09,08,11,12.40
2012,07,09,08,12,12.50
2012,07,09,08,13,12.50
2012,07,09,08,14,12.50
2012,07,09,08,15,12.50
2012,07,09,08,16,12.50
2012,07,09,08,17,12.50
2012,07,09,08,18,12.50
2012,07,09,08,19,12.60
2012,07,09,08,20,12.60
2012,07,09,08,21,12.60
2012,07,09,08,22,12.60
2012,07,09,08,23,12.60
2012,07,09,08,24,12.60
2012,07,09,08,25,12.70
2012,07,09,08,26,12.70
2012,07,09,08,27,12.70
2012,07,09,08,28,12.70
2012,07,09,08,29,12.70
2012,07,09,08,30,12.70
2012,07,09,08,31,12.80
2012,07,09,08,32,12.80
2012,07,09,08,33,12.80
2012,07,09,08,34,12.80
2012,07,09,08,35,12.80
2012,07,09,08,36,12.80
2012,07,09,08,37,12.80
2012,07,09,08,38,12.80
2012,07,09,08,39,12.80
2012,07,09,08,40,12.80
2012,07,09,08,41,12.80
2012,07,09,08,42,12.80
2012,07,09,08,43,12.80
2012,07,09,08,44,12.80
2012,07,09,08,45,12.90
2012,07,09,08,46,12.90
2012,07,09,08,47,12.90
2012,07,09,08,48,12.90
2012,07,09,08,49,13.00
2012,07,09,08,50,13.00
2012,07,09,08,51,13.00
2012,07,09,08,52,13.10
2012,07,09,08,53,13.10
2012,07,09,08,54,13.10
2012,07,09,08,55,13.10
2012,07,09,08,56,13.10
2012,07,09,08,57,13.20
2012,07,09,08,58,13.20
2012,07,09,08,59,13.20
2012,07,09,09,00,13.20
2012,07,09,09,01,13.20
2012,07,09,09,02,13.20
2012,07,09,09,03,13.30
2012,07,09,09,04,13.30
2012,07,09,09,05,13.30
2012,07,09,09,06,13.40
2012,07,09,09,07,13.40
2012,07,09,09,08,13.40
2012,07,09,09,09,13.50
2012,07,09,09,10,13.50
2012,07,09,09,11,13.50
2012,07,09,09,12,13.60
2012,07,09,09,13,13.60
2012,07,09,09,14,13.60
2012,07,09,09,15,13.60
2012,07,09,09,16,13.70
2012,07,09,09,17,13.70
2012,07,09,09,18,13.70
2012,07,09,09,19,13.70
2012,07,09,09,20,13.70
2012,07,09,09,21,13.70
2012,07,09,09,22,13.70
2012,07,09,09,23,13.70
2012,07,09,09,24,13.80
2012,07,09,09,25,13.80
2012,07,09,09,26,13.80
2012,07,09,09,27,13.80
2012,07,09,09,28,13.80
2012,07,09,09,29,13.80
2012,07,09,09,30,13.80
2012,07,09,09,31,13.80
2012,07,09,09,32,13.70
2012,07,09,09,33,13.70
2012,07,09,09,34,13.70
2012,07,09,09,35,13.70
2012,07,09,09,36,13.70
2012,07,09,09,37,13.70
2012,07,09,09,38,13.70
2012,07,09,09,39,13.70
2012,07,09,09,40,13.70
2012,07,09,09,41,13.70
2012,07,09,09,42,13.70
2012,07,09,09,43,13.70
2012,07,09,09,44,13.70
2012,07,09,09,45,13.70
2012,07,09,09,46,13.70
2012,07,09,09,47,13.70
2012,07,09,09,48,13.70
2012,07,09,09,49,13.70
2012,07,09,09,50,13.70
2012,07,09,09,51,13.70
2012,07,09,09,52,13.80
2012,07,09,09,53,13.80
2012,07,09,09,54,13.80
2012,07,09,09,55,13.80
2012,07,09,09,56,13.80
2012,07,09,09,57,13.80
2012,07,09,09,58,13.90
2012,07,09,09,59,13.90
2012,07,09,10,00,13.90
2012,07,09,10,01,13.90
2012,07,09,10,02,14.00
2012,07,09,10,03,14.00
2012,07,09,10,04,14.10
2012,07,09,10,05,14.10
2012,07,09,10,06,14.10
2012,07,09,10,07,14.20
2012,07,09,10,08,14.20
2012,07,09,10,09,14.30
2012,07,09,10,10,14.30
2012,07,09,10,11,14.30
2012,07,09,10,12,14.30
2012,07,09,10,13,14.40
2012,07,09,10,14,14.40
2012,07,09,10,15,14.40
2012,07,09,10,16,14.40
2012,07,09,10,17,14.40
2012,07,09,10,18,14.40
2012,07,09,10,19,14.40
2012,07,09,10,20,14.40
2012,07,09,10,21,14.40
2012,07,09,10,22,14.50
2012,07,09,10,23,14.50
2012,07,09,10,24,14.40
2012,07,09,10,25,14.40
2012,07,09,10,26,14.40
2012,07,09,10,27,14.50
2012,07,09,10,28,14.50
2012,07,09,10,29,14.50
2012,07,09,10,30,14.50
2012,07,09,10,31,14.50
2012,07,09,10,32,14.50
2012,07,09,10,33,14.50
2012,07,09,10,34,14.50
2012,07,09,10,35,14.50
2012,07,09,10,36,14.50
2012,07,09,10,37,14.50
2012,07,09,10,38,14.50
2012,07,09,10,39,14.50
2012,07,09,10,40,14.50
2012,07,09,10,41,14.60
2012,07,09,10,42,14.50
2012,07,09,10,43,14.50
2012,07,09,10,44,14.50
2012,07,09,10,45,14.50
2012,07,09,10,46,14.40
2012,07,09,10,47,14.40
2012,07,09,10,48,14.40
2012,07,09,10,49,14.40
2012,07,09,10,50,14.40
2012,07,09,10,51,14.40
2012,07,09,10,52,14.50
2012,07,09,10,53,14.50
2012,07,09,10,54,14.50
2012,07,09,10,55,14.60
2012,07,09,10,56,14.60
2012,07,09,10,57,14.60
2012,07,09,10,58,14.60
2012,07,09,10,59,14.60
2012,07,09,11,00,14.60
2012,07,09,11,01,14.60
2012,07,09,11,02,14.60
2012,07,09,11,03,14.60
2012,07,09,11,04,14.70
2012,07,09,11,05,14.70
2012,07,09,11,06,14.70
2012,07,09,11,07,14.70
2012,07,09,11,08,14.70
2012,07,09,11,09,14.70
2012,07,09,11,10,14.70
2012,07,09,11,11,14.80
2012,07,09,11,12,14.80
2012,07,09,11,13,14.80
2012,07,09,11,14,14.70
2012,07,09,11,15,14.70
2012,07,09,11,16,14.80
2012,07,09,11,17,14.80
2012,07,09,11,18,14.80
2012,07,09,11,19,14.80
2012,07,09,11,20,14.80
2012,07,09,11,21,14.80
2012,07,09,11,22,14.80
2012,07,09,11,23,14.80
2012,07,09,11,24,14.80
2012,07,09,11,25,14.80
2012,07,09,11,26,14.80
2012,07,09,11,27,14.80
2012,07,09,11,28,14.90
2012,07,09,11,29,14.90
2012,07,09,11,30,14.90
2012,07,09,11,31,14.90
2012,07,09,11,32,14.90
2012,07,09,11,33,15.00
2012,07,09,11,34,15.00
2012,07,09,11,35,15.10
2012,07,09,11,36,15.10
2012,07,09,11,37,15.10
2012,07,09,11,38,15.10
2012,07,09,11,39,15.20
2012,07,09,11,40,15.20
2012,07,09,11,41,15.20
2012,07,09,11,42,15.20
2012,07,09,11,43,15.30
2012,07,09,11,44,15.30
2012,07,09,11,45,15.30
2012,07,09,11,46,15.40
2012,07,09,11,47,15.40
2012,07,09,11,48,15.50
2012,07,09,11,49,15.50
2012,07,09,11,50,15.50
2012,07,09,11,51,15.50
2012,07,09,11,52,15.60
2012,07,09,11,53,15.60
2012,07,09,11,54,15.60
2012,07,09,11,55,15.60
2012,07,09,11,56,15.60
2012,07,09,11,57,15.60
2012,07,09,11,58,15.60
2012,07,09,11,59,15.60
2012,07,09,12,00,15.70
2012,07,09,12,01,15.70
2012,07,09,12,02,15.70
2012,07,09,12,03,15.70
2012,07,09,12,04,15.70
2012,07,09,12,05,15.70
2012,07,09,12,06,15.80
2012,07,09,12,07,15.80
2012,07,09,12,08,15.80
2012,07,09,12,09,15.90
2012,07,09,12,10,15.90
2012,07,09,12,11,15.90
2012,07,09,12,12,15.90
2012,07,09,12,13,16.00
2012,07,09,12,14,16.00
2012,07,09,12,15,16.00
2012,07,09,12,16,16.10
2012,07,09,12,17,16.10
2012,07,09,12,18,16.10
2012,07,09,12,19,16.20
2012,07,09,12,20,16.20
2012,07,09,12,21,16.30
2012,07,09,12,22,16.30
2012,07,09,12,23,16.30
2012,07,09,12,24,16.30
2012,07,09,12,25,16.40
2012,07,09,12,26,16.40
2012,07,09,12,27,16.40
2012,07,09,12,28,16.40
2012,07,09,12,29,16.40
2012,07,09,12,30,16.40
2012,07,09,12,31,16.40
2012,07,09,12,32,16.40
2012,07,09,12,33,16.40
2012,07,09,12,34,16.40
2012,07,09,12,35,16.40
2012,07,09,12,36,16.50
2012,07,09,12,37,16.50
2012,07,09,12,38,16.60
2012,07,09,12,39,16.60
2012,07,09,12,40,16.60
2012,07,09,12,41,16.60
2012,07,09,12,42,16.70
2012,07,09,12,43,16.70
2012,07,09,12,44,16.80
2012,07,09,12,45,16.80
2012,07,09,12,46,16.80
2012,07,09,12,47,16.90
2012,07,09,12,48,16.90
2012,07,09,12,49,17.00
2012,07,09,12,50,17.00
2012,07,09,12,51,17.10
2012,07,09,12,52,17.30
2012,07,09,12,53,17.30
2012,07,09,12,54,17.30
2012,07,09,12,55,17.40
2012,07,09,12,56,17.40
2012,07,09,12,57,17.40
2012,07,09,12,58,17.50
2012,07,09,12,59,17.50
2012,07,09,13,00,17.60
2012,07,09,13,01,17.60
2012,07,09,13,02,17.60
2012,07,09,13,03,17.70
2012,07,09,13,04,17.80
2012,07,09,13,05,17.80
2012,07,09,13,06,17.80
2012,07,09,13,07,17.80
2012,07,09,13,08,17.80
2012,07,09,13,09,17.80
2012,07,09,13,10,17.80
2012,07,09,13,11,17.80
2012,07,09,13,12,17.80
2012,07,09,13,13,17.80
2012,07,09,13,14,17.80
2012,07,09,13,15,17.90
2012,07,09,13,16,17.90
2012,07,09,13,17,18.00
2012,07,09,13,18,18.00
2012,07,09,13,19,18.10
2012,07,09,13,20,18.20
2012,07,09,13,21,18.30
2012,07,09,13,22,18.30
2012,07,09,13,23,18.40
2012,07,09,13,24,18.40
2012,07,09,13,25,18.50
2012,07,09,13,26,18.50
2012,07,09,13,27,18.50
2012,07,09,13,28,18.60
2012,07,09,13,29,18.60
2012,07,09,13,30,18.60
2012,07,09,13,31,18.50
2012,07,09,13,32,18.50
2012,07,09,13,33,18.40
2012,07,09,13,34,18.40
2012,07,09,13,35,18.50
2012,07,09,13,36,18.40
2012,07,09,13,37,18.40
2012,07,09,13,38,18.30
2012,07,09,13,39,18.30
2012,07,09,13,40,18.20
2012,07,09,13,41,18.20
2012,07,09,13,42,18.20
2012,07,09,13,43,18.20
2012,07,09,13,44,18.30
2012,07,09,13,45,18.40
2012,07,09,13,46,18.40
2012,07,09,13,47,18.50
2012,07,09,13,48,18.60
2012,07,09,13,49,18.60
2012,07,09,13,50,18.60
2012,07,09,13,51,18.60
2012,07,09,13,52,18.60
2012,07,09,13,53,18.60
2012,07,09,13,54,18.70
2012,07,09,13,55,18.70
2012,07,09,13,56,18.80
2012,07,09,13,57,18.90
2012,07,09,13,58,18.90
2012,07,09,13,59,19.00
2012,07,09,14,00,19.00
2012,07,09,14,01,19.00
2012,07,09,14,02,19.00
2012,07,09,14,03,19.00
2012,07,09,14,04,19.00
2012,07,09,14,05,18.90
2012,07,09,14,06,18.90
2012,07,09,14,07,18.80
2012,07,09,14,08,18.70
2012,07,09,14,09,18.70
2012,07,09,14,10,18.70
2012,07,09,14,11,18.70
2012,07,09,14,12,18.70
2012,07,09,14,13,18.70
2012,07,09,14,14,18.70
2012,07,09,14,15,18.80
2012,07,09,14,16,18.80
2012,07,09,14,17,18.80
2012,07,09,14,18,18.80
2012,07,09,14,19,18.90
2012,07,09,14,20,18.90
2012,07,09,14,21,18.90
2012,07,09,14,22,18.90
2012,07,09,14,23,19.00
2012,07,09,14,24,19.10
2012,07,09,14,25,19.10
2012,07,09,14,26,19.10
2012,07,09,14,27,19.10
2012,07,09,14,28,19.10
2012,07,09,14,29,19.10
2012,07,09,14,30,19.10
2012,07,09,14,31,19.10
2012,07,09,14,32,19.00
2012,07,09,14,33,19.00
2012,07,09,14,34,18.90
2012,07,09,14,35,18.90
2012,07,09,14,36,18.90
2012,07,09,14,37,18.90
2012,07,09,14,38,19.00
2012,07,09,14,39,19.10
2012,07,09,14,40,19.20
2012,07,09,14,41,19.20
2012,07,09,14,42,19.20
2012,07,09,14,43,19.20
2012,07,09,14,44,19.20
2012,07,09,14,45,19.20
2012,07,09,14,46,19.30
2012,07,09,14,47,19.30
2012,07,09,14,48,19.40
2012,07,09,14,49,19.40
2012,07,09,14,50,19.40
2012,07,09,14,51,19.50
2012,07,09,14,52,19.60
2012,07,09,14,53,19.70
2012,07,09,14,54,19.70
2012,07,09,14,55,19.80
2012,07,09,14,56,19.80
2012,07,09,14,57,19.80
2012,07,09,14,58,19.90
2012,07,09,14,59,19.90
2012,07,09,15,00,19.90
2012,07,09,15,01,19.80
2012,07,09,15,02,19.80
2012,07,09,15,03,19.80
2012,07,09,15,04,19.80
2012,07,09,15,05,19.90
2012,07,09,15,06,19.90
2012,07,09,15,07,19.90
2012,07,09,15,08,20.00
2012,07,09,15,09,20.00
2012,07,09,15,10,20.00
2012,07,09,15,11,19.90
2012,07,09,15,12,19.90
2012,07,09,15,13,19.80
2012,07,09,15,14,19.80
2012,07,09,15,15,19.80
2012,07,09,15,16,19.90
2012,07,09,15,17,19.90
2012,07,09,15,18,19.90
2012,07,09,15,19,19.80
2012,07,09,15,20,19.80
2012,07,09,15,21,19.80
2012,07,09,15,22,19.70
2012,07,09,15,23,19.60
2012,07,09,15,24,19.60
2012,07,09,15,25,19.60
2012,07,09,15,26,19.50
2012,07,09,15,27,19.50
2012,07,09,15,28,19.40
2012,07,09,15,29,19.40
2012,07,09,15,30,19.40
2012,07,09,15,31,19.40
2012,07,09,15,32,19.40
2012,07,09,15,33,19.40
2012,07,09,15,34,19.40
2012,07,09,15,35,19.40
2012,07,09,15,36,19.40
2012,07,09,15,37,19.40
2012,07,09,15,38,19.40
2012,07,09,15,39,19.40
2012,07,09,15,40,19.40
2012,07,09,15,41,19.40
2012,07,09,15,42,19.50
2012,07,09,15,43,19.50
2012,07,09,15,44,19.40
2012,07,09,15,45,19.40
2012,07,09,15,46,19.40
2012,07,09,15,47,19.30
2012,07,09,15,48,19.40
2012,07,09,15,49,19.40
2012,07,09,15,50,19.50
2012,07,09,15,51,19.50
2012,07,09,15,52,19.50
2012,07,09,15,53,19.50
2012,07,09,15,54,19.50
2012,07,09,15,55,19.40
2012,07,09,15,56,19.30
2012,07,09,15,57,19.30
2012,07,09,15,58,19.30
2012,07,09,15,59,19.40
2012,07,09,16,00,19.40
2012,07,09,16,01,19.40
2012,07,09,16,02,19.40
2012,07,09,16,03,19.30
2012,07,09,16,04,19.30
2012,07,09,16,05,19.30
2012,07,09,16,06,19.30
2012,07,09,16,07,19.30
2012,07,09,16,08,19.20
2012,07,09,16,09,19.20
2012,07,09,16,10,19.10
2012,07,09,16,11,19.20
2012,07,09,16,12,19.20
2012,07,09,16,13,19.20
2012,07,09,16,14,19.10
2012,07,09,16,15,19.10
2012,07,09,16,16,19.20
2012,07,09,16,17,19.10
2012,07,09,16,18,19.10
2012,07,09,16,19,19.00
2012,07,09,16,20,19.00
2012,07,09,16,21,19.00
2012,07,09,16,22,19.00
2012,07,09,16,23,19.10
2012,07,09,16,24,19.10
2012,07,09,16,25,19.20
2012,07,09,16,26,19.20
2012,07,09,16,27,19.20
2012,07,09,16,28,19.20
2012,07,09,16,29,19.20
2012,07,09,16,30,19.20
2012,07,09,16,31,19.20
2012,07,09,16,32,19.20
2012,07,09,16,33,19.10
2012,07,09,16,34,19.10
2012,07,09,16,35,19.10
2012,07,09,16,36,19.10
2012,07,09,16,37,19.20
2012,07,09,16,38,19.20
2012,07,09,16,39,19.10
2012,07,09,16,40,19.10
2012,07,09,16,41,19.00
2012,07,09,16,42,19.00
2012,07,09,16,43,19.00
2012,07,09,16,44,19.00
2012,07,09,16,45,19.00
2012,07,09,16,46,19.00
2012,07,09,16,47,19.00
2012,07,09,16,48,18.90
2012,07,09,16,49,18.90
2012,07,09,16,50,18.90
2012,07,09,16,51,18.90
2012,07,09,16,52,18.90
2012,07,09,16,53,18.90
2012,07,09,16,54,19.00
2012,07,09,16,55,19.00
2012,07,09,16,56,19.10
2012,07,09,16,57,19.10
2012,07,09,16,58,19.10
2012,07,09,16,59,19.10
2012,07,09,17,00,19.10
2012,07,09,17,01,19.10
2012,07,09,17,02,19.10
2012,07,09,17,03,19.10
2012,07,09,17,04,19.20
2012,07,09,17,05,19.20
2012,07,09,17,06,19.20
2012,07,09,17,07,19.20
2012,07,09,17,08,19.20
2012,07,09,17,09,19.20
2012,07,09,17,10,19.10
2012,07,09,17,11,19.00
2012,07,09,17,12,19.00
2012,07,09,17,13,18.90
2012,07,09,17,14,18.80
2012,07,09,17,15,18.80
2012,07,09,17,16,18.80
2012,07,09,17,17,18.80
2012,07,09,17,18,18.80
2012,07,09,17,19,18.90